| time (UTC) | temp F | wind direction | speed knots | gust knots | rain 1hr in | rain 24hr in | rain mn in | humidity % | barometer mb |
| 20260506232312 | 49 | 38 | 0.9 | 1.7 | 0.00 | 0.30 | 0.30 | 67 | 1010.7 |
| 20260506231809 | 49 | 33 | 2.6 | 2.6 | 0.00 | 0.30 | 0.30 | 67 | 1010.7 |
| 20260506231307 | 49 | 15 | 1.7 | 5.2 | 0.00 | 0.30 | 0.30 | 67 | 1010.8 |
| 20260506230804 | 49 | 14 | 1.7 | 1.7 | 0.00 | 0.30 | 0.30 | 68 | 1010.7 |
| 20260506230301 | 49 | 29 | 1.7 | 2.6 | 0.00 | 0.30 | 0.30 | 69 | 1010.5 |
| 20260506225757 | 49 | 15 | 3.5 | 5.2 | 0.00 | 0.30 | 0.30 | 69 | 1010.5 |
| 20260506225254 | 49 | 27 | 0.9 | 0.9 | 0.00 | 0.30 | 0.30 | 68 | 1010.5 |
| 20260506224745 | 50 | 24 | 1.7 | 2.6 | 0.00 | 0.30 | 0.30 | 68 | 1010.5 |
| 20260506224243 | 50 | 33 | 1.7 | 2.6 | 0.00 | 0.30 | 0.30 | 68 | 1010.3 |
| 20260506223738 | 50 | 24 | 3.5 | 4.3 | 0.00 | 0.30 | 0.30 | 67 | 1010.5 |
| 20260506223234 | 50 | 16 | 4.3 | 5.2 | 0.00 | 0.30 | 0.30 | 67 | 1010.4 |
| 20260506222731 | 50 | 13 | 6.1 | 7.8 | 0.00 | 0.30 | 0.30 | 66 | 1010.5 |
| 20260506222226 | 50 | 2 | 3.5 | 4.3 | 0.00 | 0.30 | 0.30 | 67 | 1010.3 |
| 20260506221725 | 50 | 34 | 3.5 | 5.2 | 0.00 | 0.30 | 0.30 | 67 | 1010.3 |
| 20260506221223 | 50 | 26 | 4.3 | 6.1 | 0.00 | 0.30 | 0.30 | 67 | 1010.0 |
| 20260506220720 | 50 | 351 | 3.5 | 4.3 | 0.00 | 0.30 | 0.30 | 67 | 1010.2 |
| 20260506220214 | 51 | 330 | 5.2 | 6.1 | 0.00 | 0.30 | 0.30 | 65 | 1010.0 |
| 20260506215711 | 51 | 9 | 2.6 | 2.6 | 0.00 | 0.30 | 0.30 | 61 | 1010.2 |
| 20260506215207 | 51 | 341 | 1.7 | 1.7 | 0.00 | 0.30 | 0.30 | 58 | 1009.8 |
| 20260506214704 | 51 | 2 | 4.3 | 6.1 | 0.00 | 0.30 | 0.30 | 58 | 1010.0 |
| 20260506214201 | 51 | 333 | 3.5 | 4.3 | 0.00 | 0.30 | 0.30 | 57 | 1009.8 |
| 20260506213659 | 52 | 324 | 2.6 | 2.6 | 0.00 | 0.30 | 0.30 | 58 | 1009.6 |
| 20260506213156 | 52 | 19 | 2.6 | 2.6 | 0.00 | 0.30 | 0.30 | 58 | 1009.8 |
| 20260506212653 | 52 | 6 | 0.0 | 0.9 | 0.00 | 0.30 | 0.30 | 57 | 1009.5 |
| 20260506212148 | 53 | 13 | 3.5 | 5.2 | 0.00 | 0.30 | 0.30 | 58 | 1009.5 |
| 20260506211644 | 52 | 339 | 3.5 | 5.2 | 0.00 | 0.30 | 0.30 | 57 | 1009.4 |
| 20260506211141 | 52 | 8 | 4.3 | 5.2 | 0.00 | 0.30 | 0.30 | 58 | 1009.1 |
| 20260506210638 | 52 | 43 | 2.6 | 5.2 | 0.00 | 0.30 | 0.30 | 56 | 1009.5 |
| 20260506210134 | 53 | 10 | 3.5 | 4.3 | 0.00 | 0.30 | 0.30 | 58 | 1009.4 |
| 20260506205632 | 53 | 271 | 2.6 | 2.6 | 0.00 | 0.30 | 0.30 | 57 | 1009.5 |
| 20260506205126 | 53 | 297 | 2.6 | 4.3 | 0.00 | 0.30 | 0.30 | 55 | 1009.4 |
| 20260506204625 | 53 | 0 | 2.6 | 4.3 | 0.00 | 0.30 | 0.30 | 55 | 1009.5 |
| 20260506204121 | 52 | 290 | 1.7 | 1.7 | 0.00 | 0.30 | 0.30 | 54 | 1009.4 |
| 20260506203619 | 53 | 0 | 1.7 | 2.6 | 0.00 | 0.30 | 0.30 | 56 | 1009.5 |
| 20260506203116 | 53 | 314 | 3.5 | 4.3 | 0.00 | 0.30 | 0.30 | 57 | 1009.6 |
| 20260506202614 | 53 | 290 | 1.7 | 2.6 | 0.00 | 0.30 | 0.30 | 53 | 1009.6 |
| 20260506202110 | 52 | 331 | 4.3 | 4.3 | 0.00 | 0.30 | 0.30 | 55 | 1009.4 |
| 20260506201607 | 52 | 301 | 3.5 | 4.3 | 0.00 | 0.30 | 0.30 | 53 | 1009.5 |
| 20260506201103 | 52 | 309 | 2.6 | 2.6 | 0.00 | 0.30 | 0.30 | 53 | 1009.5 |
| 20260506200600 | 52 | 26 | 3.5 | 4.3 | 0.00 | 0.30 | 0.30 | 53 | 1009.6 |
| 20260506200057 | 52 | 320 | 0.9 | 1.7 | 0.00 | 0.30 | 0.30 | 56 | 1009.6 |
| 20260506195553 | 52 | 320 | 4.3 | 6.1 | 0.00 | 0.30 | 0.30 | 53 | 1009.7 |
| 20260506195049 | 52 | 317 | 2.6 | 4.3 | 0.00 | 0.30 | 0.30 | 54 | 1009.5 |
| 20260506194548 | 52 | 321 | 1.7 | 1.7 | 0.00 | 0.30 | 0.30 | 51 | 1009.7 |
| 20260506194043 | 52 | 264 | 2.6 | 4.3 | 0.00 | 0.30 | 0.30 | 53 | 1009.5 |
| 20260506193541 | 52 | 316 | 4.3 | 5.2 | 0.00 | 0.30 | 0.30 | 49 | 1009.7 |
| 20260506193038 | 52 | 335 | 1.7 | 2.6 | 0.00 | 0.30 | 0.30 | 51 | 1009.4 |
| 20260506192535 | 52 | 20 | 4.3 | 6.1 | 0.00 | 0.30 | 0.30 | 55 | 1009.8 |
| 20260506192031 | 52 | 30 | 6.1 | 7.8 | 0.00 | 0.30 | 0.30 | 57 | 1009.6 |
| 20260506191528 | 53 | 346 | 2.6 | 2.6 | 0.00 | 0.30 | 0.30 | 54 | 1009.9 |
| 20260506191024 | 54 | 353 | 4.3 | 5.2 | 0.00 | 0.30 | 0.30 | 55 | 1009.7 |
| 20260506190521 | 53 | 306 | 5.2 | 6.1 | 0.00 | 0.30 | 0.30 | 52 | 1009.8 |
| 20260506190019 | 52 | 47 | 7.8 | 9.6 | 0.00 | 0.30 | 0.30 | 54 | 1009.5 |
| 20260506185515 | 52 | 348 | 7.8 | 9.6 | 0.00 | 0.30 | 0.30 | 54 | 1009.8 |
| 20260506185012 | 53 | 293 | 6.1 | 6.1 | 0.00 | 0.30 | 0.30 | 50 | 1009.9 |
| 20260506184509 | 53 | 329 | 3.5 | 4.3 | 0.00 | 0.30 | 0.30 | 52 | 1009.9 |
| 20260506184006 | 52 | 12 | 6.1 | 7.8 | 0.00 | 0.30 | 0.30 | 53 | 1009.7 |
| 20260506183502 | 54 | 3 | 7.8 | 8.7 | 0.00 | 0.30 | 0.30 | 55 | 1009.8 |
| 20260506182959 | 53 | 309 | 5.2 | 7.0 | 0.00 | 0.30 | 0.30 | 52 | 1009.9 |
| 20260506182456 | 53 | 306 | 1.7 | 1.7 | 0.00 | 0.30 | 0.30 | 58 | 1009.6 |
| 20260506181953 | 53 | 13 | 4.3 | 7.0 | 0.00 | 0.30 | 0.30 | 59 | 1009.7 |
| 20260506181451 | 53 | 302 | 4.3 | 6.1 | 0.00 | 0.30 | 0.30 | 54 | 1009.8 |
| 20260506180948 | 53 | 312 | 2.6 | 4.3 | 0.00 | 0.30 | 0.30 | 53 | 1010.0 |
| 20260506180444 | 53 | 287 | 2.6 | 2.6 | 0.00 | 0.30 | 0.30 | 52 | 1009.9 |
| 20260506175941 | 52 | 304 | 3.5 | 4.3 | 0.00 | 0.30 | 0.30 | 57 | 1009.8 |
| 20260506175438 | 53 | 345 | 7.8 | 9.6 | 0.00 | 0.30 | 0.30 | 59 | 1009.9 |
| 20260506174934 | 52 | 331 | 4.3 | 6.1 | 0.00 | 0.30 | 0.30 | 54 | 1009.9 |
| 20260506174432 | 52 | 322 | 3.5 | 4.3 | 0.00 | 0.30 | 0.30 | 54 | 1010.0 |
| 20260506173928 | 52 | 343 | 2.6 | 2.6 | 0.00 | 0.30 | 0.30 | 64 | 1009.7 |
| 20260506173425 | 53 | 348 | 2.6 | 2.6 | 0.00 | 0.30 | 0.30 | 62 | 1009.5 |
| 20260506172917 | 53 | 25 | 6.1 | 7.8 | 0.00 | 0.30 | 0.30 | 61 | 1009.5 |
| 20260506172414 | 52 | 21 | 5.2 | 6.1 | 0.00 | 0.30 | 0.30 | 62 | 1009.4 |
| 20260506171911 | 52 | 333 | 4.3 | 6.1 | 0.00 | 0.30 | 0.30 | 61 | 1009.6 |
| 20260506171408 | 52 | 17 | 5.2 | 7.8 | 0.00 | 0.30 | 0.30 | 61 | 1009.5 |
| 20260506170906 | 52 | 294 | 5.2 | 6.1 | 0.00 | 0.30 | 0.30 | 60 | 1009.4 |
| 20260506170401 | 52 | 330 | 7.0 | 8.7 | 0.00 | 0.30 | 0.30 | 60 | 1009.8 |
| 20260506165855 | 53 | 350 | 7.8 | 9.6 | 0.00 | 0.30 | 0.30 | 61 | 1009.7 |
| 20260506165353 | 53 | 342 | 2.6 | 2.6 | 0.00 | 0.30 | 0.30 | 59 | 1009.7 |
| 20260506164849 | 53 | 313 | 3.5 | 5.2 | 0.00 | 0.30 | 0.30 | 62 | 1009.5 |
| 20260506164345 | 53 | 329 | 3.5 | 4.3 | 0.00 | 0.30 | 0.30 | 64 | 1009.6 |
| 20260506163843 | 52 | 330 | 2.6 | 4.3 | 0.00 | 0.30 | 0.30 | 63 | 1009.5 |
| 20260506163338 | 53 | 313 | 4.3 | 5.2 | 0.00 | 0.30 | 0.30 | 59 | 1009.3 |
| 20260506162833 | 52 | 24 | 4.3 | 5.2 | 0.00 | 0.30 | 0.30 | 64 | 1009.1 |
| 20260506162332 | 52 | 4 | 3.5 | 5.2 | 0.00 | 0.30 | 0.30 | 63 | 1009.5 |
| 20260506161829 | 52 | 313 | 2.6 | 4.3 | 0.00 | 0.30 | 0.30 | 65 | 1009.3 |
| 20260506161326 | 51 | 23 | 0.9 | 0.9 | 0.00 | 0.30 | 0.30 | 70 | 1009.3 |
| 20260506160823 | 51 | 3 | 7.8 | 11.3 | 0.00 | 0.30 | 0.30 | 68 | 1009.1 |
| 20260506160319 | 52 | 7 | 1.7 | 1.7 | 0.00 | 0.30 | 0.30 | 70 | 1009.1 |
| 20260506155818 | 52 | 348 | 6.1 | 8.7 | 0.00 | 0.30 | 0.30 | 68 | 1009.0 |
| 20260506155314 | 52 | 341 | 3.5 | 4.3 | 0.00 | 0.30 | 0.30 | 69 | 1009.1 |
| 20260506153427 | 52 | 324 | 5.2 | 6.1 | 0.00 | 0.30 | 0.30 | 76 | 1008.9 |
| 20260506152925 | 50 | 332 | 4.3 | 6.1 | 0.00 | 0.30 | 0.30 | 77 | 1008.7 |
| 20260506152421 | 51 | 323 | 6.1 | 7.0 | 0.00 | 0.30 | 0.30 | 79 | 1008.4 |
| 20260506151920 | 50 | 325 | 2.6 | 2.6 | 0.00 | 0.30 | 0.30 | 79 | 1008.8 |
| 20260506151416 | 51 | 318 | 2.6 | 2.6 | 0.00 | 0.30 | 0.30 | 79 | 1008.8 |
| 20260506150914 | 50 | 322 | 2.6 | 4.3 | 0.00 | 0.30 | 0.30 | 82 | 1008.2 |
| 20260506150410 | 50 | 27 | 3.5 | 5.2 | 0.00 | 0.30 | 0.30 | 82 | 1008.5 |
| 20260506145907 | 50 | 351 | 1.7 | 1.7 | 0.00 | 0.30 | 0.30 | 80 | 1008.4 |
| 20260506145403 | 49 | 284 | 1.7 | 2.6 | 0.00 | 0.30 | 0.30 | 81 | 1008.4 |
| 20260506144901 | 49 | 339 | 3.5 | 4.3 | 0.00 | 0.30 | 0.30 | 82 | 1008.4 |
| 20260506144357 | 49 | 306 | 1.7 | 1.7 | 0.00 | 0.30 | 0.30 | 83 | 1008.5 |
| 20260506143856 | 49 | 20 | 3.5 | 5.2 | 0.00 | 0.30 | 0.30 | 84 | 1008.4 |
| 20260506143352 | 48 | 344 | 3.5 | 4.3 | 0.00 | 0.30 | 0.30 | 84 | 1008.2 |
| 20260506142851 | 49 | 0 | 1.7 | 1.7 | 0.00 | 0.30 | 0.30 | 85 | 1008.2 |
| 20260506142348 | 49 | 289 | 3.5 | 4.3 | 0.00 | 0.30 | 0.30 | 85 | 1008.1 |
| 20260506141847 | 48 | 288 | 0.9 | 1.7 | 0.00 | 0.30 | 0.30 | 85 | 1008.1 |
| 20260506141344 | 48 | 343 | 0.9 | 1.7 | 0.00 | 0.30 | 0.30 | 87 | 1008.2 |
| 20260506140842 | 47 | 302 | 0.9 | 1.7 | 0.00 | 0.30 | 0.30 | 89 | 1008.0 |
| 20260506140339 | 47 | 309 | 0.9 | 1.7 | 0.00 | 0.30 | 0.30 | 92 | 1008.1 |
| 20260506135836 | 46 | 320 | 2.6 | 2.6 | 0.00 | 0.30 | 0.30 | 93 | 1008.0 |
| 20260506135332 | 46 | 325 | 0.9 | 0.9 | 0.00 | 0.30 | 0.30 | 97 | 1008.2 |
| 20260506134828 | 45 | 318 | 2.6 | 2.6 | 0.00 | 0.30 | 0.30 | 99 | 1008.0 |
| 20260506134325 | 45 | 310 | 1.7 | 1.7 | 0.00 | 0.30 | 0.30 | 99 | 1007.9 |
| 20260506133822 | 45 | 287 | 2.6 | 2.6 | 0.00 | 0.30 | 0.30 | 99 | 1007.9 |
| 20260506133319 | 45 | 326 | 1.7 | 1.7 | 0.00 | 0.30 | 0.30 | 99 | 1008.1 |
| 20260506132816 | 45 | 355 | 1.7 | 1.7 | 0.00 | 0.30 | 0.30 | 99 | 1007.9 |
| 20260506132313 | 45 | 346 | 0.9 | 0.9 | 0.00 | 0.30 | 0.30 | 99 | 1008.2 |
| 20260506131811 | 45 | 311 | 1.7 | 1.7 | 0.00 | 0.30 | 0.30 | 99 | 1007.9 |
| 20260506131307 | 45 | 323 | 0.0 | 0.9 | 0.00 | 0.30 | 0.30 | 99 | 1008.2 |
| 20260506130804 | 44 | 8 | 2.6 | 4.3 | 0.00 | 0.30 | 0.30 | 99 | 1007.7 |
| 20260506130300 | 44 | 334 | 0.9 | 1.7 | 0.00 | 0.30 | 0.30 | 99 | 1007.4 |
| 20260506125759 | 44 | 295 | 0.0 | 0.0 | 0.00 | 0.30 | 0.30 | 99 | 1007.3 |
| 20260506125256 | 45 | 357 | 2.6 | 2.6 | 0.00 | 0.30 | 0.30 | 99 | 1007.6 |
| 20260506124755 | 44 | 358 | 0.9 | 0.9 | 0.00 | 0.30 | 0.30 | 99 | 1007.3 |
| 20260506124252 | 45 | 337 | 0.9 | 1.7 | 0.00 | 0.30 | 0.30 | 99 | 1007.2 |
| 20260506123749 | 45 | 9 | 1.7 | 1.7 | 0.00 | 0.30 | 0.30 | 99 | 1006.8 |
| 20260506123248 | 45 | 15 | 3.5 | 4.3 | 0.00 | 0.30 | 0.30 | 99 | 1007.3 |
| 20260506122744 | 45 | 336 | 1.7 | 1.7 | 0.00 | 0.30 | 0.30 | 99 | 1007.1 |
| 20260506122241 | 44 | 343 | 1.7 | 2.6 | 0.00 | 0.30 | 0.30 | 99 | 1007.0 |
| 20260506121739 | 44 | 355 | 0.9 | 1.7 | 0.00 | 0.30 | 0.30 | 99 | 1007.0 |
| 20260506121236 | 44 | 347 | 2.6 | 2.6 | 0.00 | 0.30 | 0.30 | 99 | 1007.1 |
| 20260506120733 | 44 | 346 | 0.0 | 0.9 | 0.00 | 0.30 | 0.30 | 99 | 1007.2 |
| 20260506120231 | 44 | 336 | 0.9 | 0.9 | 0.00 | 0.30 | 0.30 | 99 | 1007.2 |
| 20260506115729 | 44 | 341 | 0.0 | 0.0 | 0.00 | 0.30 | 0.30 | 99 | 1007.0 |
| 20260506115227 | 44 | 341 | 0.0 | 0.0 | 0.00 | 0.30 | 0.30 | 99 | 1006.8 |
| 20260506114724 | 44 | 359 | 0.0 | 0.0 | 0.00 | 0.30 | 0.30 | 99 | 1007.2 |
| 20260506114221 | 44 | 359 | 0.0 | 0.0 | 0.00 | 0.30 | 0.30 | 99 | 1006.8 |
| 20260506113720 | 44 | 0 | 0.0 | 0.9 | 0.00 | 0.30 | 0.30 | 99 | 1007.0 |
| 20260506113217 | 44 | 0 | 0.0 | 0.0 | 0.00 | 0.30 | 0.30 | 99 | 1006.6 |
| 20260506112713 | 44 | 359 | 0.0 | 0.0 | 0.00 | 0.30 | 0.30 | 99 | 1006.8 |
| 20260506112211 | 44 | 335 | 0.0 | 0.0 | 0.00 | 0.30 | 0.30 | 99 | 1006.5 |
| 20260506111708 | 44 | 334 | 0.0 | 0.0 | 0.00 | 0.30 | 0.30 | 99 | 1006.4 |
| 20260506111206 | 43 | 334 | 0.0 | 0.0 | 0.00 | 0.30 | 0.30 | 99 | 1006.2 |
| 20260506110703 | 43 | 299 | 0.0 | 0.0 | 0.00 | 0.30 | 0.30 | 99 | 1006.1 |
| 20260506110201 | 43 | 315 | 0.0 | 0.0 | 0.00 | 0.30 | 0.30 | 99 | 1006.2 |
| 20260506105657 | 44 | 337 | 0.0 | 0.0 | 0.00 | 0.30 | 0.30 | 99 | 1006.3 |
| 20260506105154 | 43 | 327 | 0.9 | 1.7 | 0.00 | 0.30 | 0.30 | 99 | 1006.0 |
| 20260506104652 | 43 | 15 | 0.9 | 0.9 | 0.00 | 0.30 | 0.30 | 99 | 1005.6 |
| 20260506104149 | 43 | 356 | 3.5 | 4.3 | 0.00 | 0.30 | 0.30 | 99 | 1006.0 |
| 20260506103646 | 43 | 5 | 2.6 | 2.6 | 0.00 | 0.30 | 0.30 | 99 | 1005.9 |
| 20260506103143 | 44 | 338 | 1.7 | 1.7 | 0.00 | 0.30 | 0.30 | 99 | 1005.9 |
| 20260506102642 | 44 | 331 | 2.6 | 2.6 | 0.00 | 0.30 | 0.30 | 99 | 1005.9 |
| 20260506102138 | 43 | 4 | 2.6 | 2.6 | 0.00 | 0.30 | 0.30 | 99 | 1006.0 |
| 20260506101635 | 44 | 323 | 1.7 | 2.6 | 0.00 | 0.30 | 0.30 | 99 | 1005.6 |
| 20260506101132 | 44 | 358 | 0.9 | 0.9 | 0.00 | 0.30 | 0.30 | 99 | 1005.5 |
| 20260506100631 | 43 | 353 | 1.7 | 1.7 | 0.00 | 0.30 | 0.30 | 99 | 1005.1 |
| 20260506100128 | 43 | 21 | 2.6 | 2.6 | 0.00 | 0.30 | 0.30 | 99 | 1005.0 |
| 20260506095627 | 44 | 19 | 0.9 | 1.7 | 0.00 | 0.30 | 0.30 | 99 | 1004.8 |
| 20260506095123 | 44 | 34 | 0.9 | 1.7 | 0.00 | 0.30 | 0.30 | 99 | 1004.9 |
| 20260506094620 | 44 | 31 | 0.0 | 0.0 | 0.00 | 0.30 | 0.30 | 99 | 1005.2 |
| 20260506094118 | 44 | 21 | 0.9 | 0.9 | 0.00 | 0.30 | 0.30 | 99 | 1005.6 |
| 20260506093616 | 44 | 28 | 0.0 | 0.9 | 0.00 | 0.30 | 0.30 | 99 | 1005.5 |
| 20260506093113 | 44 | 16 | 1.7 | 1.7 | 0.00 | 0.30 | 0.30 | 99 | 1005.7 |
| 20260506092611 | 44 | 340 | 4.3 | 5.2 | 0.07 | 0.30 | 0.30 | 99 | 1006.0 |
| 20260506092108 | 44 | 9 | 1.7 | 1.7 | 0.07 | 0.30 | 0.30 | 99 | 1006.1 |
| 20260506091606 | 44 | 328 | 0.9 | 0.9 | 0.00 | 0.29 | 0.29 | 99 | 1006.1 |
| 20260506091103 | 44 | 305 | 1.7 | 2.6 | 0.07 | 0.29 | 0.29 | 99 | 1006.0 |
| 20260506090601 | 44 | 340 | 4.3 | 5.2 | 0.05 | 0.28 | 0.28 | 99 | 1005.9 |
| 20260506090057 | 44 | 327 | 1.7 | 1.7 | 0.05 | 0.28 | 0.28 | 99 | 1005.7 |
| 20260506085554 | 44 | 345 | 2.6 | 4.3 | 0.00 | 0.27 | 0.27 | 99 | 1005.7 |
| 20260506085050 | 44 | 335 | 0.9 | 0.9 | 0.00 | 0.27 | 0.27 | 99 | 1005.5 |
| 20260506084547 | 44 | 344 | 4.3 | 5.2 | 0.00 | 0.27 | 0.27 | 99 | 1005.8 |
| 20260506084043 | 44 | 350 | 4.3 | 5.2 | 0.00 | 0.27 | 0.27 | 99 | 1005.3 |
| 20260506083541 | 44 | 354 | 0.9 | 0.9 | 0.00 | 0.27 | 0.27 | 99 | 1005.3 |
| 20260506083038 | 44 | 356 | 0.9 | 0.9 | 0.00 | 0.27 | 0.27 | 99 | 1005.7 |
| 20260506082535 | 44 | 7 | 0.9 | 0.9 | 0.07 | 0.27 | 0.27 | 99 | 1005.5 |
| 20260506082030 | 44 | 3 | 2.6 | 2.6 | 0.07 | 0.27 | 0.27 | 99 | 1005.4 |
| 20260506081529 | 44 | 10 | 2.6 | 2.6 | 0.05 | 0.26 | 0.26 | 99 | 1005.7 |
| 20260506081026 | 44 | 13 | 0.9 | 0.9 | 0.05 | 0.26 | 0.26 | 99 | 1005.8 |
| 20260506080523 | 44 | 29 | 2.6 | 2.6 | 0.07 | 0.25 | 0.25 | 99 | 1005.9 |
| 20260506073507 | 44 | 7 | 0.9 | 1.7 | 0.07 | 0.23 | 0.23 | 99 | 1005.7 |
| 20260506073004 | 44 | 8 | 2.6 | 4.3 | 0.00 | 0.22 | 0.22 | 99 | 1005.7 |
| 20260506072501 | 44 | 5 | 0.0 | 0.9 | 0.05 | 0.22 | 0.22 | 99 | 1005.6 |
| 20260506071959 | 44 | 335 | 2.6 | 2.6 | 0.05 | 0.22 | 0.22 | 99 | 1005.7 |
| 20260506071456 | 44 | 0 | 0.0 | 0.0 | 0.07 | 0.21 | 0.21 | 99 | 1005.5 |
| 20260506070953 | 44 | 357 | 1.7 | 1.7 | 0.07 | 0.21 | 0.21 | 99 | 1005.4 |
| 20260506070450 | 44 | 347 | 2.6 | 2.6 | 0.00 | 0.20 | 0.20 | 99 | 1005.2 |
| 20260506062428 | 44 | 7 | 4.3 | 6.1 | 0.00 | 0.16 | 0.16 | 99 | 1005.4 |
| 20260506061923 | 44 | 352 | 0.9 | 0.9 | 0.07 | 0.16 | 0.16 | 99 | 1005.6 |
| 20260506061420 | 44 | 0 | 2.6 | 2.6 | 0.07 | 0.16 | 0.16 | 99 | 1005.6 |
| 20260506060918 | 44 | 352 | 0.0 | 0.0 | 0.05 | 0.15 | 0.15 | 99 | 1005.6 |
| 20260506060416 | 44 | 10 | 1.7 | 1.7 | 0.05 | 0.15 | 0.15 | 99 | 1005.7 |
| 20260506051348 | 44 | 16 | 2.6 | 2.6 | 0.14 | 0.06 | 0.06 | 99 | 1005.9 |
| 20260506050845 | 44 | 29 | 1.7 | 1.7 | 0.12 | 0.05 | 0.05 | 99 | 1006.0 |
| 20260506050343 | 45 | 26 | 3.5 | 4.3 | 0.05 | 0.04 | 0.04 | 99 | 1006.0 |
| 20260506044833 | 45 | 348 | 0.9 | 0.9 | 0.07 | 0.03 | 0.03 | 99 | 1005.9 |
| 20260506044331 | 45 | 6 | 2.6 | 2.6 | 0.00 | 0.02 | 0.02 | 99 | 1005.8 |
| 20260506043828 | 45 | 23 | 1.7 | 1.7 | 0.00 | 0.02 | 0.02 | 99 | 1006.0 |
| 20260506043325 | 45 | 21 | 4.3 | 6.1 | 0.05 | 0.02 | 0.02 | 99 | 1006.1 |
| 20260506042823 | 45 | 1 | 4.3 | 5.2 | 0.05 | 0.02 | 0.02 | 99 | 1006.1 |
| 20260506042322 | 45 | 15 | 3.5 | 4.3 | 0.00 | 0.01 | 0.01 | 99 | 1006.0 |
| 20260506041821 | 45 | 14 | 2.6 | 2.6 | 0.00 | 0.01 | 0.01 | 99 | 1006.3 |
| 20260506041317 | 45 | 14 | 6.1 | 7.8 | 0.07 | 0.01 | 0.01 | 99 | 1006.1 |
| 20260506040814 | 46 | 29 | 5.2 | 7.0 | 0.07 | 0.01 | 0.01 | 99 | 1006.3 |
| 20260506040312 | 46 | 356 | 6.1 | 7.0 | 0.05 | 0.00 | 0.00 | 99 | 1006.2 |
| 20260506035808 | 47 | 12 | 5.2 | 6.1 | 0.12 | 1.01 | 1.01 | 99 | 1006.3 |
| 20260506035306 | 47 | 13 | 5.2 | 6.1 | 0.07 | 1.00 | 1.00 | 99 | 1006.3 |
| 20260506034803 | 47 | 7 | 4.3 | 5.2 | 0.05 | 0.99 | 0.99 | 99 | 1006.6 |
| 20260506034259 | 47 | 347 | 2.6 | 4.3 | 0.12 | 0.99 | 0.99 | 99 | 1006.6 |
| 20260506033756 | 47 | 12 | 4.3 | 5.2 | 0.07 | 0.98 | 0.98 | 99 | 1006.6 |
| 20260506033253 | 47 | 356 | 3.5 | 4.3 | 0.05 | 0.97 | 0.97 | 99 | 1006.5 |
| 20260506032750 | 48 | 25 | 3.5 | 5.2 | 0.05 | 0.97 | 0.97 | 99 | 1006.4 |
| 20260506032247 | 48 | 17 | 0.0 | 0.0 | 0.07 | 0.96 | 0.96 | 99 | 1006.9 |
| 20260506031744 | 48 | 3 | 2.6 | 2.6 | 0.12 | 0.96 | 0.96 | 99 | 1006.8 |
| 20260506031241 | 48 | 18 | 1.7 | 1.7 | 0.05 | 0.95 | 0.95 | 99 | 1006.5 |
| 20260506030739 | 48 | 14 | 1.7 | 1.7 | 0.07 | 0.94 | 0.94 | 99 | 1006.4 |
| 20260506030237 | 48 | 7 | 1.7 | 1.7 | 0.14 | 0.94 | 0.94 | 99 | 1006.8 |
| 20260506025733 | 48 | 5 | 0.0 | 0.0 | 0.12 | 0.93 | 0.93 | 99 | 1007.0 |
| 20260506025230 | 48 | 5 | 0.0 | 0.0 | 0.17 | 0.92 | 0.92 | 99 | 1007.0 |
| 20260506024727 | 48 | 5 | 0.0 | 0.0 | 0.19 | 0.91 | 0.91 | 99 | 1006.6 |
| 20260506024223 | 48 | 5 | 0.0 | 0.0 | 0.12 | 0.90 | 0.90 | 99 | 1006.5 |
| 20260506023719 | 48 | 3 | 0.0 | 0.0 | 0.12 | 0.88 | 0.88 | 99 | 1006.6 |
| 20260506023217 | 48 | 308 | 0.9 | 0.9 | 0.12 | 0.87 | 0.87 | 99 | 1007.0 |
| 20260506022713 | 48 | 298 | 1.7 | 1.7 | 0.12 | 0.86 | 0.86 | 99 | 1006.9 |
| 20260506022211 | 48 | 350 | 1.7 | 1.7 | 0.19 | 0.85 | 0.85 | 99 | 1006.5 |
| 20260506021709 | 48 | 15 | 0.0 | 0.0 | 0.17 | 0.84 | 0.84 | 99 | 1006.4 |
| 20260506021206 | 48 | 18 | 0.9 | 0.9 | 0.12 | 0.82 | 0.82 | 99 | 1006.3 |
| 20260506020703 | 48 | 11 | 0.9 | 0.9 | 0.14 | 0.81 | 0.81 | 99 | 1006.4 |
| 20260506020201 | 48 | 12 | 0.9 | 0.9 | 0.12 | 0.80 | 0.80 | 99 | 1006.1 |
| 20260506015658 | 48 | 344 | 0.9 | 0.9 | 0.12 | 0.79 | 0.79 | 99 | 1006.1 |
| 20260506015155 | 48 | 17 | 0.9 | 0.9 | 0.12 | 0.78 | 0.78 | 99 | 1005.9 |
| 20260506014652 | 48 | 24 | 0.0 | 0.9 | 0.12 | 0.77 | 0.77 | 99 | 1005.9 |
| 20260506014148 | 48 | 18 | 2.6 | 2.6 | 0.12 | 0.76 | 0.76 | 99 | 1005.7 |
| 20260506013646 | 48 | 20 | 2.6 | 4.3 | 0.17 | 0.75 | 0.75 | 99 | 1006.0 |
| 20260506013143 | 48 | 19 | 1.7 | 1.7 | 0.19 | 0.74 | 0.74 | 99 | 1006.2 |
| 20260506012639 | 48 | 22 | 0.9 | 0.9 | 0.12 | 0.72 | 0.72 | 99 | 1006.3 |
| 20260506012136 | 48 | 357 | 2.6 | 2.6 | 0.17 | 0.71 | 0.71 | 99 | 1006.1 |
| 20260506011633 | 48 | 354 | 1.7 | 1.7 | 0.19 | 0.70 | 0.70 | 99 | 1006.1 |
| 20260506011129 | 48 | 6 | 3.5 | 4.3 | 0.14 | 0.68 | 0.68 | 99 | 1006.0 |
| 20260506010628 | 48 | 15 | 2.6 | 2.6 | 0.07 | 0.67 | 0.67 | 99 | 1006.0 |
| 20260506010125 | 48 | 3 | 2.6 | 2.6 | 0.17 | 0.66 | 0.66 | 99 | 1006.0 |
| 20260506005622 | 48 | 3 | 2.6 | 2.6 | 0.17 | 0.66 | 0.66 | 99 | 1005.8 |
| 20260506005118 | 48 | 332 | 1.7 | 1.7 | 0.07 | 0.63 | 0.63 | 99 | 1005.7 |
| 20260506004615 | 48 | 20 | 1.7 | 1.7 | 0.12 | 0.63 | 0.63 | 99 | 1005.6 |
| 20260506004112 | 48 | 335 | 0.9 | 1.7 | 0.12 | 0.62 | 0.62 | 99 | 1005.4 |
| 20260506003609 | 48 | 329 | 2.6 | 2.6 | 0.19 | 0.61 | 0.61 | 99 | 1005.9 |
| 20260506003105 | 48 | 49 | 0.0 | 0.0 | 0.24 | 0.60 | 0.60 | 99 | 1005.5 |
| 20260506002601 | 48 | 48 | 0.9 | 0.9 | 0.19 | 0.58 | 0.58 | 99 | 1005.2 |
| 20260506002057 | 48 | 26 | 0.9 | 1.7 | 0.12 | 0.56 | 0.56 | 99 | 1005.5 |
| 20260506001553 | 48 | 26 | 0.0 | 0.9 | 0.12 | 0.55 | 0.55 | 99 | 1005.6 |
| 20260506001050 | 48 | 29 | 0.0 | 0.0 | 0.12 | 0.54 | 0.54 | 99 | 1005.4 |
| 20260506000547 | 48 | 17 | 0.9 | 1.7 | 0.05 | 0.53 | 0.53 | 99 | 1005.6 |
| 20260506000045 | 48 | 13 | 1.7 | 1.7 | 0.00 | 0.52 | 0.52 | 99 | 1005.6 |
| 20260505235543 | 48 | 19 | 0.9 | 0.9 | 0.00 | 0.52 | 0.52 | 99 | 1005.6 |
| 20260505235039 | 48 | 18 | 0.9 | 0.9 | 0.00 | 0.52 | 0.52 | 99 | 1005.5 |
| 20260505234537 | 48 | 28 | 1.7 | 1.7 | 0.00 | 0.52 | 0.52 | 99 | 1005.4 |
| 20260505234033 | 49 | 25 | 2.6 | 2.6 | 0.00 | 0.52 | 0.52 | 99 | 1005.5 |
| 20260505233531 | 49 | 2 | 6.1 | 7.0 | 0.00 | 0.52 | 0.52 | 99 | 1005.4 |
| 20260505233028 | 49 | 29 | 0.0 | 0.0 | 0.07 | 0.52 | 0.52 | 99 | 1005.6 |